FLOCK 3P-63

Last updated on Wed Feb 14 2018 16:20:33 GMT+0000 (Coordinated Universal Time)

1 42035U 17008CR 18044.67950728 .00001309 00000-0 57122-4 0 9995 2 42035 97.4657 110.2764 0009530 90.2375 269.9954 15.23915212 53269
UTC large
Height (km)
Speed (km/s)
/
Latitude / Longitude
Inclination (degrees)
Orbital Period (minutes)
Azimuth
Elevation
Range (km)
Doppler Factor

Next 0 passes for location: London (51.5072 / 0.1276)

Sorry there are no passes over London.